TimeCDT,TemperatureF,Dew PointF,Humidity,Sea Level PressureIn,VisibilityMPH,Wind Direction,Wind SpeedMPH,Gust SpeedMPH,PrecipitationIn,Events,Conditions,WindDirDegrees,DateUTC
12:16 AM,60.8,59.0,94,29.90,2.0,SE,3.5,-,N/A,,Clear,130,2013-09-26 05:16:00
12:55 AM,59.0,59.0,100,29.90,1.5,Calm,Calm,-,N/A,,Clear,0,2013-09-26 05:55:00
1:04 AM,59.0,57.2,94,29.91,0.5,Calm,Calm,-,N/A,Fog,Fog,0,2013-09-26 06:04:00
1:21 AM,59.0,59.0,100,29.91,1.0,Calm,Calm,-,N/A,,Clear,0,2013-09-26 06:21:00
1:24 AM,59.0,57.2,94,29.91,3.0,ENE,3.5,-,N/A,,Clear,70,2013-09-26 06:24:00
1:40 AM,57.2,57.2,100,29.92,2.0,Calm,Calm,-,N/A,,Clear,0,2013-09-26 06:40:00
1:47 AM,57.2,57.2,100,29.92,1.5,Calm,Calm,-,N/A,,Clear,0,2013-09-26 06:47:00
1:55 AM,57.9,57.0,97,29.92,0.8,Calm,Calm,-,N/A,,Clear,0,2013-09-26 06:55:00
2:04 AM,57.2,57.2,100,29.92,0.2,Calm,Calm,-,N/A,Fog,Fog,0,2013-09-26 07:04:00
2:24 AM,57.2,57.2,100,29.92,0.8,Calm,Calm,-,N/A,,Clear,0,2013-09-26 07:24:00
2:31 AM,57.2,57.2,100,29.92,0.5,East,3.5,-,N/A,Fog,Fog,100,2013-09-26 07:31:00
2:41 AM,57.2,57.2,100,29.92,0.8,East,3.5,-,N/A,,Clear,100,2013-09-26 07:41:00
2:48 AM,59.0,57.2,94,29.92,2.0,East,4.6,-,N/A,,Clear,100,2013-09-26 07:48:00
2:55 AM,59.0,57.9,96,29.91,3.0,East,3.5,-,N/A,,Clear,100,2013-09-26 07:55:00
3:35 AM,57.2,57.2,100,29.93,2.0,Calm,Calm,-,N/A,,Clear,0,2013-09-26 08:35:00
3:42 AM,57.2,57.2,100,29.93,1.0,East,3.5,-,N/A,,Clear,80,2013-09-26 08:42:00
3:55 AM,57.0,57.0,100,29.93,0.8,Calm,Calm,-,N/A,,Clear,0,2013-09-26 08:55:00
4:03 AM,57.2,57.2,100,29.93,0.5,Calm,Calm,-,N/A,Fog,Fog,0,2013-09-26 09:03:00
4:10 AM,57.2,57.2,100,29.93,1.0,Calm,Calm,-,N/A,,Clear,0,2013-09-26 09:10:00
4:17 AM,57.2,57.2,100,29.93,3.0,Calm,Calm,-,N/A,,Clear,0,2013-09-26 09:17:00
4:33 AM,55.4,55.4,100,29.93,2.0,East,3.5,-,N/A,,Clear,100,2013-09-26 09:33:00
4:46 AM,57.2,55.4,94,29.94,4.0,East,3.5,-,N/A,,Clear,100,2013-09-26 09:46:00
4:55 AM,57.0,57.0,100,29.94,4.0,Calm,Calm,-,N/A,,Clear,0,2013-09-26 09:55:00
5:10 AM,57.2,55.4,94,29.94,2.5,East,3.5,-,N/A,,Clear,100,2013-09-26 10:10:00
5:23 AM,57.2,55.4,94,29.94,3.0,East,3.5,-,N/A,,Clear,90,2013-09-26 10:23:00
5:55 AM,57.0,55.9,96,29.95,4.0,East,3.5,-,N/A,,Clear,90,2013-09-26 10:55:00
6:55 AM,57.9,55.9,93,29.96,5.0,East,4.6,-,N/A,,Clear,100,2013-09-26 11:55:00
7:55 AM,59.0,57.0,93,29.98,3.0,ESE,4.6,-,N/A,,Clear,110,2013-09-26 12:55:00
8:55 AM,63.0,60.1,90,29.98,4.0,ESE,10.4,-,N/A,,Clear,120,2013-09-26 13:55:00
9:55 AM,71.1,62.1,73,29.98,8.0,SE,10.4,-,N/A,,Clear,140,2013-09-26 14:55:00
10:55 AM,75.9,64.0,67,29.99,10.0,South,9.2,-,N/A,,Clear,180,2013-09-26 15:55:00
11:55 AM,80.1,62.1,54,29.98,10.0,South,16.1,21.9,N/A,,Clear,170,2013-09-26 16:55:00
12:55 PM,82.0,61.0,49,29.96,10.0,South,10.4,21.9,N/A,,Clear,180,2013-09-26 17:55:00
1:55 PM,84.0,61.0,46,29.94,10.0,SSE,12.7,23.0,N/A,,Scattered Clouds,160,2013-09-26 18:55:00
2:55 PM,84.9,60.1,43,29.93,10.0,South,15.0,21.9,N/A,,Clear,170,2013-09-26 19:55:00
3:55 PM,82.9,60.1,46,29.93,10.0,South,15.0,20.7,N/A,,Clear,180,2013-09-26 20:55:00
4:55 PM,84.0,60.1,44,29.93,10.0,SE,11.5,-,N/A,,Partly Cloudy,130,2013-09-26 21:55:00
5:55 PM,81.0,60.1,49,29.93,10.0,SSE,13.8,-,N/A,,Clear,150,2013-09-26 22:55:00
6:55 PM,75.9,61.0,60,29.94,10.0,SE,6.9,-,N/A,,Clear,130,2013-09-26 23:55:00
7:55 PM,68.0,60.1,76,29.95,10.0,SSE,6.9,-,N/A,,Clear,150,2013-09-27 00:55:00
8:55 PM,68.0,61.0,78,29.96,10.0,SE,6.9,-,N/A,,Clear,130,2013-09-27 01:55:00
9:55 PM,68.0,61.0,78,29.97,8.0,SE,6.9,-,N/A,,Clear,130,2013-09-27 02:55:00
10:55 PM,66.9,61.0,81,29.98,9.0,SE,8.1,-,N/A,,Clear,140,2013-09-27 03:55:00
11:55 PM,64.9,60.1,84,29.99,9.0,SE,6.9,-,N/A,,Clear,140,2013-09-27 04:55:00